Regional Weather Roundup
Issued by NWS

Home | Current Version | Previous Version | Text Only | Print | Product List | Glossary On
Versions: 1 2 3 4 5 6 7 8 9 10 11 12 13 14 15 16 17 18 19 20 21 22 23 24 25 26 27 28 29 30 31 32 33 34 35 36 37 38 39 40 41 42 43 44 45 46 47 48 49 50
000
ASUS45 KSLC 211110
RWRUT

UTAH REGIONAL WEATHER ROUNDUP
NATIONAL WEATHER SERVICE SALT LAKE CITY UT
500 AM MDT TUE APR 21 2015

UTZ001>011-023>025-211200-

NORTHERN UTAH

CITY           SKY/WX    TMP DP  RH WIND       PRES   REMARKS
BRIGHAM CITY   CLEAR     41  32  70 CALM      29.88S
HILL AFB       CLEAR     46  25  43 E18       29.88F
LOGAN          CLEAR     38  32  79 CALM      29.89S
OGDEN          CLEAR     47  26  44 S10       29.87S
PROVO AIRPORT  CLEAR     41  27  56 S8        29.92S
SALT LAKE CITY CLEAR     45  30  55 SE8       29.88S
VERNAL         CLEAR     37  25  61 W5        29.93R WCI  33
WENDOVER       PTCLDY    43  19  39 CALM      29.87S
HEBER CITY     CLEAR     32  21  64 CALM      29.97R
WEST JORDAN    CLEAR     41  28  60 SW6       29.90S

$$

UTZ012>022-026-027-211200-

SOUTHERN/CENTRAL UTAH

CITY           SKY/WX    TMP DP  RH WIND       PRES   REMARKS
BLANDING       CLEAR     42  27  55 N6        30.02S
BRYCE CANYON   PTCLDY    27  17  66 W10       30.03S WCI  17
CEDAR CITY     CLEAR     46  17  31 SE3       29.93S
DELTA          CLEAR     36  16  44 NE3       29.90S
HANKSVILLE     CLEAR     37  27  65 CALM      29.91S
MILFORD        CLEAR     35  18  49 S7        29.91R WCI  29
MOAB/CYNLANDS  CLEAR     46  35  65 SE6       29.87S
PRICE          CLEAR     38  17  42 N3        29.93S
ST GEORGE      SUNNY     55  16  21 S3        29.85S
KANAB          CLEAR     34  16  47 NE6       29.98R WCI  29

$$

REGIONAL REPORTS     COLORADO/ARIZONA

CITY           SKY/WX    TMP DP  RH WIND       PRES   REMARKS
CRAIG, CO      CLEAR     28  25  88 CALM      29.98R
GRAND JUNCTION CLEAR     41  35  79 E7        29.93R
RIFLE          MOCLDY    37  31  78 SE3       29.99R
MONTROSE       CLEAR     36  30  79 S7        29.98S WCI  30
CORTEZ         CLEAR     28  21  75 E5        29.98S WCI  23
PAGE, AZ       CLEAR     55  19  24 CALM      29.88R
GRAND CANYON   PTCLDY    26  14  60 E3        30.02S
KINGMAN        CLEAR     51  22  31 SE8       29.87R
FLAGSTAFF      PTCLDY    32  19  58 SW3       30.03S

$$

REGIONAL REPORTS    NEVADA/IDAHO/WYOMING

CITY           SKY/WX    TMP DP  RH WIND       PRES   REMARKS
LAS VEGAS, NV  PTCLDY    69  19  15 S10       29.74R
ELY            CLEAR     28   6  39 S10       29.96F WCI  19
ELKO           PTCLDY    34  17  50 CALM      29.91S
POCATELLO, ID  CLEAR     35  27  72 NW6       29.88S WCI  30
BURLEY         CLEAR     43  26  51 SW3       29.85S
EVANSTON, WY   PTCLDY    36  21  54 S6        29.98S WCI  31
ROCK SPRINGS   CLEAR     36  19  50 CALM      29.97S

$$



USA.gov is the U.S. government's official web portal to all federal, state and local government web resources and services.